www.pogodaiklimat.ru

Погода и климат >> Архив погоды >> Россия >> Якутия >> Саскылах


АРХИВ ПОГОДЫ в Саскылахе

Время (UTC), дата Ветер
(напр.,м/с)
 
Видим.   Явления Облачность Т
(С)
Тd
(С)
f
(%)
Тe
(С)
Тes
(С)
Комфортность P
(гПа)
Po
(гПа)
Тmin
(С)
Tmax
(С)
R
(мм)
R24
(мм)
S
(см)
00 17.01 В 3 50 км ясно -26.4 -29.2 77 -35 -35 опасность
обморожения
1006.3 1003.8 -26.5 49
03 17.01 В 3 50 км ясно -28.6 -31.7 75 -38 -38 опасность
обморожения
1007.0 1004.4
06 17.01 ЮВ 3 50 км ясно -30.7 -33.8 74 -40 -40 опасность
обморожения
1008.7 1006.1
09 17.01 ЮВ 3 50 км ясно -32.7 -36.1 71 -43 -43 опасность
обморожения
1010.6 1008.0
12 17.01 С 1 50 км ясно -35.4 -39.1 69 -40 -40 опасность
обморожения
1012.9 1010.2 -26.4
18 17.01 Ю 1 н/о н/о -40.8 -45.1 63 -46 -46 опасность
обморожения
1015.9 1013.5
00 18.01 ЮВ 2 50 км ясно -41.1 -45.6 62 -50 -50 опасность
обморожения
1019.0 1016.2 -41.2 49
06 18.01 Ю 1 50 км ясно -41.9 -46.4 61 -47 -47 опасность
обморожения
1018.8 1016.1
09 18.01 ЮВ 1 50 км ясно -42.0 -46.7 60 -47 -47 опасность
обморожения
1018.2 1015.5
12 18.01 Ю 1 50 км ясно -40.5 -45.0 62 -46 -46 опасность
обморожения
1017.3 1014.6 -41.7
15 18.01 Ю 5 50 км ясно -38.1 -42.2 65 -53 -53 опасность
обморожения
1014.6 1011.9
18 18.01 ЮВ 7-10
{10}
н/о н/о -36.7 -40.7 66 -53 -53 опасность
обморожения
1011.8 1009.4
21 18.01 ЮВ 8-10
{11}
н/о н/о -35.6 -39.5 67 -53 -53 опасность
обморожения
1009.8 1007.4
00 19.01 ЮВ 3 50 км ясно -35.4 -39.4 67 -46 -46 опасность
обморожения
1009.2 1006.5 -40.6 49
03 19.01 ЮВ 5 4000 м дымка ясно -35.3 -39.2 67 -49 -49 опасность
обморожения
1007.5 1004.8
06 19.01 ЮВ 6 20 км слаб. снег 10/0
[As op]
-34.1 -38.0 68 -49 -49 опасность
обморожения
1006.5 1003.8
09 19.01 ЮВ 4 50 км {снег} ясно -33.9 -37.8 68 -46 -46 опасность
обморожения
1006.3 1003.6
12 19.01 ЮВ 5 50 км {снег} ясно -32.3 -36.1 69 -45 -45 опасность
обморожения
1003.4 1002.8 -32.3
15 19.01 ЮВ 5 50 км ясно -31.6 -35.4 69 -45 -45 опасность
обморожения
1004.4 1001.8
18 19.01 ЮВ 6 н/о н/о -31.8 -35.6 69 -46 -46 опасность
обморожения
1002.9 1000.7
21 19.01 В 5 50 км ясно -33.3 -37.5 66 -47 -47 опасность
обморожения
1002.9 1000.2
00 20.01 В 4 50 км ясно -33.5 -37.6 66 -46 -46 опасность
обморожения
1002.3 999.6 -33.6 49
03 20.01 ЮВ 4 50 км ясно -33.6 -37.7 66 -46 -46 опасность
обморожения
1001.6 998.9
06 20.01 ЮВ 4 50 км ясно -34.4 -38.6 65 -47 -47 опасность
обморожения
1001.7 999.0
09 20.01 ЮВ 3 50 км ясно -33.8 -37.8 67 -44 -44 опасность
обморожения
1001.7 999.0
12 20.01 В 2 4000 м слаб. снег 10/0
[As op]
-33.0 -36.9 68 -41 -41 опасность
обморожения
1001.9 999.2 -33.0 2
15 20.01 В 3 4000 м слаб. снег 10/0
[As op]
-32.3 -36.4 67 -42 -42 опасность
обморожения
1001.9 999.3
18 20.01 ЮВ 4 н/о н/о -32.1 -36.0 68 -44 -44 опасность
обморожения
1002.0 999.7
21 20.01 ЮВ 2 50 км 6/0
[Ac trans Ci fib]
-32.8 -36.9 67 -41 -41 опасность
обморожения
1004.1 1001.4
00 21.01 штиль 0 50 км 6/0
[Ci fib]
-32.6 -36.5 68 -33 -33 опасность
обморожения
1005.8 1003.1 -33.1 0.2 49
03 21.01 СЗ 2 50 км 10/0
[Ac und]
-31.8 -35.6 69 -40 -40 опасность
обморожения
1008.5 1005.8
06 21.01 СЗ 4 50 км ясно -33.2 -37.4 66 -45 -45 опасность
обморожения
1010.9 1008.2
09 21.01 СЗ 4 50 км ясно -35.2 -39.6 64 -48 -48 опасность
обморожения
1014.6 1011.9
12 21.01 З 2 50 км ясно -37.4 -41.9 63 -46 -46 опасность
обморожения
1017.5 1014.8 -31.8
15 21.01 штиль 0 50 км ясно -38.2 -42.5 64 -38 -38 опасность
обморожения
1019.5 1016.7
18 21.01 С 3 н/о н/о -37.6 -41.8 65 -49 -49 опасность
обморожения
1021.2 1018.8
21 21.01 СЗ 3 50 км ясно -37.0 -41.2 65 -48 -48 опасность
обморожения
1023.4 1020.7
00 22.01 СЗ 1 50 км ясно -38.7 -42.9 64 -44 -44 опасность
обморожения
1025.3 1022.5 -38.8 49
03 22.01 штиль 0 50 км ясно -41.5 -46.0 61 -42 -42 опасность
обморожения
1026.5 1023.7
06 22.01 ЮВ 1 50 км ясно -41.7 -46.2 61 -47 -47 опасность
обморожения
1027.8 1025.0
09 22.01 штиль 0 50 км ясно -41.7 -46.2 61 -42 -42 опасность
обморожения
1028.4 1025.6
12 22.01 Ю 2 50 км ясно -42.6 -47.0 62 -52 -52 опасность
обморожения
1028.3 1025.4 -37.1
15 22.01 Ю 2 50 км ясно -42.7 -47.4 60 -52 -52 опасность
обморожения
1027.4 1024.5
18 22.01 ЮЗ 1 н/о н/о -40.9 -45.4 62 -46 -46 опасность
обморожения
1026.3 1023.9
21 22.01 ЮВ 1 50 км ясно -39.7 -44.1 63 -45 -45 опасность
обморожения
1023.7 1022.9
00 23.01 Ю 1 50 км ясно -39.5 -43.9 63 -45 -45 опасность
обморожения
1025.2 1022.4 -42.8 49
03 23.01 В 1 50 км ясно -39.1 -43.4 64 -44 -44 опасность
обморожения
1024.5 1021.7
06 23.01 В 2 50 км ясно -37.9 -41.2 71 -47 -47 опасность
обморожения
1024.6 1021.8
09 23.01 ЮВ 1 50 км ясно -38.5 -42.8 64 -44 -44 опасность
обморожения
1024.4 1021.6
12 23.01 ЮВ 1 50 км ясно -39.2 -43.5 63 -44 -44 опасность
обморожения
1024.1 1021.3 -38.0
15 23.01 В 2 50 км ясно -38.8 -43.0 64 -48 -48 опасность
обморожения
1023.6 1020.8
18 23.01 Ю 2 н/о н/о -39.9 -44.2 63 -49 -49 опасность
обморожения
1022.6 1020.2
21 23.01 ЮВ 1 50 км ясно -41.0 -45.7 60 -46 -46 опасность
обморожения
1022.3 1019.5

 

Местоположение метеостанции Саскылах (Якутия, Россия): широта 71.97 долгота 114.00 высота над уровнем моря 17 м.

В архиве по умолчанию представлена погода в Саскылахе за последнюю неделю. Архивные данные за месяц целиком и за предыдущие месяцы, начиная с января 2011 года, Вы можете получить, выбрав интересующий диапазон дат из раскрывающегося списка и нажав кнопку "Ввод!".


*Определитесь, кто Вы:
робот инопланетянин человек

Внимание! Время в таблицах - всемирное. Для получения местного времени необходимо прибавить поправку, которая равна 9 ч.

Смотрите также архив погоды в соседних городах и на ближайших метеорологических станциях:

Погода в Анабаре (Якутия, Россия) (140 км)
Погода в Джалинде (Якутия, Россия) (205 км)
Погода на Усть-Оленеке (Якутия, Россия) (225 км)
Погода на Острове Преображения (Якутия, Россия) (302 км)
Погода в Тюмяти (Якутия, Россия) (327 км)
Погода в Оленеке (Якутия, Россия) (391 км)
Погода в Хатанге (Красноярский край, Россия) (396 км)
Погода в Сухане (Якутия, Россия) (406 км)
Погода на Столб Острове (Якутия, Россия) (421 км)
Погода в Кюсюре (Якутия, Россия) (497 км)

Пояснения к столбцам:

Ветер - указаны скорость ветра в м/с - средняя за 10 мин, порывы в срок и между сроками (в фигурных скобках) и направление, откуда дует ветер: С - северный, СВ - северо-восточный, В - восточный, ЮВ - юго-восточный, Ю - южный, ЮЗ - юго-западный, З - западный, СЗ - северо-западный.
Видимость - горизонтальная дальность видимости в метрах или километрах. При видимости от 1 до 10 км при отсутствии осадков обычно наблюдается дымка, при ухудшении видимости до 1 км и менее - туман. В сухую погоду видимость может ухудшаться дымом, пылью или мглою.
Явления - указаны атмосферные явления, наблюдавшиеся в срок или в последний час перед сроком; фигурными скобками обозначены явления, наблюдавшиеся между сроками (за 1-3 часа до срока); квадратными скобками обозначены град или гололедные отложения с указанием их диаметра в мм.
Облачность - указаны через наклонную черту общая и нижняя облачность в баллах и высота нижней границы облаков в метрах; квадратными скобками обозначены формы облаков: Ci - перистые, Cs - перисто-слоистые, Cc - перисто-кучевые, Ac - высококучевые, As - высокослоистые, Sc - слоисто-кучевые, Ns - слоисто-дождевые, Cu - кучевые, Cb - кучево-дождевые. Подробнее классификацию облаков см. в Атласе облаков (PDF).
T - Температура воздуха - температура, измеренная на высоте 2 м над землей.
Td - Температура точки росы - температура, при понижении до которой содержащийся в воздухе водяной пар достигнет насыщения.
f - Относительная влажность воздуха - влажноcть воздуха, измеренная на высоте 2 м над землей.
Te - Эффективная температура - температура, которую ощущает одетый по сезону человек в тени. Характеристика душности погоды. При расчете учитывается влияние влажности воздуха и скорости ветра на теплоощущения человека.
Tes - Эффективная температура на солнце - температура, которую ощущает человек, с поправкой на солнечный нагрев. Характеристика знойности погоды. Зависит от высоты солнца над горизонтом, облачности и скорости ветра. Ночью, в пасмурную погоду, а также при ветре 12 м/с и более поправка равна нулю.
P - Атмосферное давление - приведенное к уровню моря атмосферное давление.
Po - Атмосферное давление - измеренное на уровне метеостанции атмосферное давление.
Tmin - Минимальная температура - минимум температуры воздуха на высоте 2 м над землей.
Tmax - Максимальная температура - максимум температуры воздуха на высоте 2 м над землей.
R - Количество осадков - Количество выпавших осадков за период времени, мм. При наведении курсора мыши на число - период времени, за который выпало указанное количество осадков.
R24 - Количество осадков - Количество выпавших осадков за 24 часа, мм.
S - Снежный покров - Высота снежного покрова, см. При наведении курсора мыши на число - состояние снежного покрова и степень покрытия местности в баллах.